Showing default

GLOBALSTAR M067, 32263

Orbit data source: Space-Track

GLOBALSTAR M067, 32263 is a payload satellite owned by Globalstar (US) in LEO that was launched on Sat, 20 Oct 2007 UTC via a SOYUZ-FG launch vehicle from the Tyuratam Missile And Space Complex (TTMTR). Payload-class satellites include a variety of spacecraft equipped with specific instruments for various scientific and technological missions. These include communications satellites like Starlink; space stations such as the ISS; scientific satellites like the Hubble; Earth observation satellites from companies like Planet Labs, Umbra, and HawkEye 360; GPS; miniature CubeSats for education and research; and military/defense satellites.

Loading next visibility...
Identifier
32263, 2007-048A
Orbit
LEO
Last TLE update
15 hours ago
Origin
Manufacturer
SS/Loral
Mission
Non-operational Commercial Communications
Bus & Motor
LS-400, LS-400 AOCS
Mass
450 kg wet, 380 kg dry
Launch date (UTC)
2007-10-20 (18 years ago)
Launch vehicle
SOYUZ-FG
Launch site
Tyuratam Missile And Space Complex (TTMTR)
Object type
Payload
Rocket body
Debris
Shape & HBR
Box + 2 Pan, 12 m
Radar Cross Section
5.587 m², Large (>1 m²)

Expand to show TLE details & history

TLE from 15 hours ago
0 GLOBALSTAR M067
1 32263U 07048A   25181.79642918 -.00000090  00000-0  56828-4 0  9991
2 32263  51.9746 356.1104 0001399  50.3784  52.4840 12.40674207811173
Epoch: 2025-06-30T19:06Z
TLE epoch observation values (Epoch: 2025-06-30T19:06:51.481Z)
Latitude
50.30286°
Longitude
-99.32716°
Altitude
1,508.985 km
Speed
7.116 km/s
True Right ascension
07h 05m 57s
True Declination
50° 08' 60"
Sunlit
Object was in daylight at epoch
Visualization orbit readout
Latitude
17.97865°
Longitude
163.08799°
Altitude
1,502.915 km
Speed
7.116 km/s
Apparent Right ascension
03h 17m 01s
Apparent Declination
-18° 03' 43"
Sunlit
Object is in daylight
Visualization observer readout
Local Sidereal Time
21:47:37
Azimuth
108.703° ESE
Elevation
-5.848°
Doppler factor
1
Orbital elements
Apogee altitude
1,505.241 km
Perigee altitude
1,503.035 km
Semi-major axis
7,882.275 km
Eccentricity
0.00014
Inclination
51.9746°
RAAN
356.1104°
Arg. of periapsis
50.3784°
True anomaly
Unknown
Mean anomaly
52.484°
Eccentric anomaly
Unknown
Mean motion
3.10146 °/min
Orbital period
116.07 mins
BSTAR
0.000056828
Loading maneuver chart data...
Loading SW <> Apogee altitude chart data...
Loading historical data...
Loading historical data...
Loading historical data...
Loading historical data...
Loading historical data...
Loading historical data...
Loading historical data...
Other satellites on launch #48 in the year 2007 (2007-10-20 UTC)

GLOBALSTAR M067 Visibility forecast

Observer location: undefined°, undefined°

Span
Click to sort rows by Start time (UTC) header in descending order
Start Az.
Max El. time (UTC)
Max El. Az.
Max El.
End time (UTC)
End Az.
10 mins2025-07-01 12:04:13.188Z155.718° SSE2025-07-01 12:09:13.188Z120.33° SE17.655°2025-07-01 12:14:13.188Z84.203° E
16 mins2025-07-01 14:02:13.188Z217.148° SW2025-07-01 14:10:13.188Z126.977° SE43.532°2025-07-01 14:18:13.188Z55.522° ENE
16 mins2025-07-01 16:05:13.188Z268.49° W2025-07-01 16:12:13.188Z333.866° NNW37.39°2025-07-01 16:21:13.188Z52.879° ENE
15 mins2025-07-01 18:09:13.188Z302.268° NW2025-07-01 18:16:13.188Z3.732° NNE32.324°2025-07-01 18:24:13.188Z70.585° E
16 mins2025-07-01 20:12:13.188Z310.979° NW2025-07-01 20:20:13.188Z44.587° NE41.917°2025-07-01 20:28:13.188Z110.698° ESE
15 mins2025-07-01 22:14:13.188Z296.785° NW2025-07-01 22:21:13.188Z236.111° WSW36.074°2025-07-01 22:29:13.188Z162.811° S
|